FW6636 Weather Reports


Display with metric or nautical units.
time (UTC)temp
F
wind
direction
speed
MPH
gust
MPH
rain 1hr
in
rain 24hr
in
rain mn
in
humidity
%
barometer
mb
20260504110549 41 0 0.0 0.0 0.00 0.00 0.00 75 1013.5
20260504100551 39 0 0.0 0.0 0.00 0.00 0.00 70 1013.2
20260504081601 44 0 0.0 4.0 0.00 0.00 0.00 57 1013.6
20260504081049 44 221 2.0 4.0 0.00 0.00 0.00 57 1013.7
20260504080549 44 213 1.0 4.0 0.00 0.00 0.00 57 1013.5
20260504060107 45 192 0.0 2.0 0.00 0.00 0.00 54 1013.5
20260504050552 46 198 2.0 5.0 0.00 0.00 0.00 53 1013.5
20260504050108 46 205 2.0 5.0 0.00 0.00 0.00 53 1013.5
20260504045551 46 211 3.0 7.0 0.00 0.00 0.00 53 1013.5
20260504045049 47 198 3.0 7.0 0.00 0.00 0.00 52 1013.4
20260504044555 48 219 3.0 7.0 0.00 0.00 0.00 50 1013.4
20260504044048 48 204 2.0 6.0 0.00 0.00 0.00 50 1013.5
20260504043549 48 209 3.0 6.0 0.00 0.00 0.00 49 1013.5
20260504043103 48 207 2.0 5.0 0.00 0.00 0.00 49 1013.4
20260504042551 48 209 2.0 6.0 0.00 0.00 0.00 50 1013.3
20260504042048 48 188 3.0 9.0 0.00 0.00 0.00 49 1013.3
20260504041555 48 200 3.0 9.0 0.00 0.00 0.00 49 1013.4
20260504041049 48 210 3.0 5.0 0.00 0.00 0.00 48 1013.3
20260504040549 48 265 2.0 6.0 0.00 0.00 0.00 50 1013.2
20260504035548 48 252 2.0 5.0 0.00 0.00 0.00 49 1013.1
20260504035049 48 236 3.0 6.0 0.00 0.00 0.00 48 1013.1
20260504034556 49 258 3.0 6.0 0.00 0.00 0.00 47 1013.0
20260504034048 49 223 3.0 6.0 0.00 0.00 0.00 47 1013.1
20260504033548 49 217 3.0 6.0 0.00 0.00 0.00 48 1013.0
20260504033059 49 236 2.0 5.0 0.00 0.00 0.00 50 1013.0
20260504032551 49 240 1.0 4.0 0.00 0.00 0.00 47 1013.0
20260504032052 49 233 1.0 4.0 0.00 0.00 0.00 47 1013.0
20260504031602 49 215 2.0 5.0 0.00 0.00 0.00 47 1013.0
20260504031049 49 219 2.0 5.0 0.00 0.00 0.00 47 1012.9
20260504030550 49 240 2.0 4.0 0.00 0.00 0.00 48 1012.8
20260504030111 50 238 2.0 6.0 0.00 0.00 0.00 46 1012.8
20260504025549 50 246 2.0 6.0 0.00 0.00 0.00 45 1012.9
20260504025050 50 225 3.0 7.0 0.00 0.00 0.00 45 1013.0
20260504024553 50 226 2.0 7.0 0.00 0.00 0.00 45 1012.9
20260504024048 50 253 2.0 6.0 0.00 0.00 0.00 46 1012.9
20260504023549 50 245 2.0 4.0 0.00 0.00 0.00 44 1012.8
20260504023054 50 262 2.0 7.0 0.00 0.00 0.00 44 1012.9
20260504022549 50 234 2.0 7.0 0.00 0.00 0.00 43 1012.9
20260504022051 51 243 2.0 8.0 0.00 0.00 0.00 45 1012.9
20260504021556 51 254 3.0 8.0 0.00 0.00 0.00 43 1012.9
20260504021052 51 255 3.0 5.0 0.00 0.00 0.00 42 1013.0
20260504020548 51 199 3.0 7.0 0.00 0.00 0.00 42 1012.8
20260504020052 52 267 2.0 8.0 0.00 0.00 0.00 41 1012.8
20260504015548 52 242 3.0 8.0 0.00 0.00 0.00 42 1012.9
20260504015051 52 230 2.0 9.0 0.00 0.00 0.00 41 1012.9
20260504014556 52 208 3.0 9.0 0.00 0.00 0.00 44 1012.7
20260504014052 52 215 2.0 8.0 0.00 0.00 0.00 41 1012.7
20260504013551 52 229 3.0 8.0 0.00 0.00 0.00 40 1012.7
20260504013051 52 246 2.0 7.0 0.00 0.00 0.00 41 1012.8
20260504012549 52 253 3.0 7.0 0.00 0.00 0.00 40 1012.7
20260504012048 52 227 2.0 7.0 0.00 0.00 0.00 41 1012.7
20260504011552 52 231 2.0 7.0 0.00 0.00 0.00 40 1012.7
20260504011048 52 240 2.0 7.0 0.00 0.00 0.00 40 1012.5
20260504010548 52 231 2.0 9.0 0.00 0.00 0.00 40 1012.6
20260504010053 53 232 3.0 9.0 0.00 0.00 0.00 39 1012.4
20260504005552 53 239 3.0 9.0 0.00 0.00 0.00 39 1012.4
20260504005049 53 224 2.0 6.0 0.00 0.00 0.00 39 1012.5
20260504004551 53 246 2.0 9.0 0.00 0.00 0.00 38 1012.4
20260504004048 54 239 3.0 9.0 0.00 0.00 0.00 37 1012.3
20260504003551 54 235 3.0 9.0 0.00 0.00 0.00 37 1012.2
20260504003054 54 223 3.0 7.0 0.00 0.00 0.00 38 1012.1
20260504002551 54 238 3.0 7.0 0.00 0.00 0.00 37 1012.1
20260504002048 54 208 3.0 9.0 0.00 0.00 0.00 36 1012.0
20260504001555 54 285 4.0 9.0 0.00 0.00 0.00 36 1012.0
20260504001049 54 295 4.0 10.0 0.00 0.00 0.00 36 1012.0
20260504000549 55 248 3.0 13.0 0.00 0.00 0.00 36 1012.1
20260504000125 55 266 6.0 13.0 0.00 0.00 0.00 36 1012.0
20260503235549 55 237 5.0 12.0 0.00 0.00 0.00 36 1011.9
20260503235049 55 271 3.0 8.0 0.00 0.00 0.00 36 1011.9
20260503234552 55 215 3.0 12.0 0.00 0.00 0.00 36 1011.9
20260503234049 56 252 5.0 12.0 0.00 0.00 0.00 34 1011.7
20260503233549 56 242 5.0 13.0 0.00 0.00 0.00 33 1011.8
20260503233054 56 264 6.0 13.0 0.00 0.00 0.00 33 1011.6
20260503232551 56 254 5.0 17.0 0.00 0.00 0.00 34 1011.5
20260503232049 57 232 5.0 17.0 0.00 0.00 0.00 33 1011.5
20260503231552 57 317 7.0 17.0 0.00 0.00 0.00 34 1011.6
20260503231050 57 271 3.0 16.0 0.00 0.00 0.00 32 1011.6
20260503230552 58 296 8.0 16.0 0.00 0.00 0.00 31 1011.5
20260503230055 58 282 7.0 15.0 0.00 0.00 0.00 31 1011.5
20260503225549 58 248 7.0 17.0 0.00 0.00 0.00 31 1011.6
20260503225049 58 277 9.0 17.0 0.00 0.00 0.00 32 1011.4
20260503224553 58 292 9.0 17.0 0.00 0.00 0.00 32 1011.4
20260503224052 58 318 6.0 17.0 0.00 0.00 0.00 32 1011.5
20260503223552 58 294 7.0 17.0 0.00 0.00 0.00 32 1011.4
20260503223055 58 271 5.0 16.0 0.00 0.00 0.00 31 1011.3
20260503222554 58 293 7.0 16.0 0.00 0.00 0.00 33 1011.4
20260503222053 58 227 6.0 16.0 0.00 0.00 0.00 32 1011.4
20260503221550 58 268 10.0 16.0 0.00 0.00 0.00 32 1011.4
20260503221056 58 32 8.0 14.0 0.00 0.00 0.00 32 1011.4
20260503220553 58 304 7.0 14.0 0.00 0.00 0.00 32 1011.4
20260503220055 58 263 7.0 14.0 0.00 0.00 0.00 32 1011.4
20260503215554 58 298 8.0 23.0 0.00 0.00 0.00 30 1011.4
20260503215052 58 291 10.0 23.0 0.00 0.00 0.00 31 1011.3
20260503214552 59 66 10.0 21.0 0.00 0.00 0.00 31 1011.3
20260503214056 58 257 7.0 13.0 0.00 0.00 0.00 31 1011.3
20260503213554 58 291 3.0 20.0 0.00 0.00 0.00 33 1011.3
20260503213051 57 277 6.0 20.0 0.00 0.00 0.00 31 1011.3
20260503212552 58 285 7.0 20.0 0.00 0.00 0.00 31 1011.3
20260503212054 58 281 6.0 15.0 0.00 0.00 0.00 29 1011.1
20260503211552 58 321 7.0 13.0 0.00 0.00 0.00 31 1011.2
20260503211052 58 312 6.0 11.0 0.00 0.00 0.00 29 1011.2
20260503210552 59 285 6.0 13.0 0.00 0.00 0.00 34 1011.1
20260503210054 58 246 6.0 13.0 0.00 0.00 0.00 30 1011.0
20260503205554 57 285 6.0 14.0 0.00 0.00 0.00 32 1011.1
20260503205054 57 252 6.0 17.0 0.00 0.00 0.00 30 1011.2
20260503204555 58 314 11.0 19.0 0.00 0.00 0.00 28 1011.1
20260503204052 59 275 6.0 19.0 0.00 0.00 0.00 32 1011.1
20260503203556 59 240 8.0 15.0 0.00 0.00 0.00 31 1011.2
20260503203052 58 273 8.0 15.0 0.00 0.00 0.00 30 1011.1
20260503202553 58 328 8.0 18.0 0.00 0.00 0.00 29 1011.2
20260503202056 58 8 8.0 18.0 0.00 0.00 0.00 29 1011.4
20260503201554 58 265 5.0 20.0 0.00 0.00 0.00 30 1011.2
20260503201056 57 8 6.0 21.0 0.00 0.00 0.00 34 1011.3
20260503200552 57 308 12.0 21.0 0.00 0.00 0.00 29 1011.5
20260503200055 57 273 11.0 20.0 0.00 0.00 0.00 29 1011.4
20260503195552 57 298 10.0 20.0 0.00 0.00 0.00 28 1011.3
20260503195052 57 247 7.0 18.0 0.00 0.00 0.00 29 1011.4
20260503194558 57 291 6.0 20.0 0.00 0.00 0.00 30 1011.7
20260503194053 57 269 9.0 20.0 0.00 0.00 0.00 27 1011.6
20260503193553 58 241 11.0 18.0 0.00 0.00 0.00 31 1011.7
20260503193100 58 267 6.0 19.0 0.00 0.00 0.00 34 1011.8
20260503192553 57 336 9.0 19.0 0.00 0.00 0.00 30 1011.8
20260503192053 56 319 10.0 19.0 0.00 0.00 0.00 31 1012.0
20260503191552 56 328 10.0 21.0 0.00 0.00 0.00 31 1012.0
20260503191058 55 346 11.0 25.0 0.00 0.00 0.00 31 1012.2
20260503190553 56 8 10.0 25.0 0.00 0.00 0.00 32 1012.1
20260503190055 55 8 12.0 25.0 0.00 0.00 0.00 34 1012.1
20260503185552 56 279 8.0 14.0 0.00 0.00 0.00 31 1012.1
20260503185053 57 355 6.0 23.0 0.00 0.00 0.00 34 1012.3
20260503184610 56 306 10.0 23.0 0.00 0.00 0.00 32 1012.3
20260503184053 56 316 12.0 23.0 0.00 0.00 0.00 32 1012.3
20260503183552 56 297 9.0 23.0 0.00 0.00 0.00 33 1012.5
20260503183100 56 13 8.0 24.0 0.00 0.00 0.00 31 1012.5
20260503182553 55 335 11.0 24.0 0.00 0.00 0.00 33 1012.7
20260503182052 55 252 12.0 19.0 0.00 0.00 0.00 32 1012.6
20260503181556 55 286 9.0 16.0 0.00 0.00 0.00 33 1012.6
20260503181050 55 360 8.0 20.0 0.00 0.00 0.00 33 1012.6
20260503180553 54 32 9.0 21.0 0.00 0.00 0.00 36 1012.6
20260503180056 55 329 10.0 21.0 0.00 0.00 0.00 36 1012.7
20260503175552 54 303 9.0 21.0 0.00 0.00 0.00 34 1012.8
20260503175053 54 293 10.0 20.0 0.00 0.00 0.00 41 1012.9
20260503174552 54 291 8.0 20.0 0.00 0.00 0.00 37 1012.8
20260503174052 53 300 7.0 20.0 0.00 0.00 0.00 35 1012.9
20260503173555 55 312 8.0 17.0 0.00 0.00 0.00 36 1012.9
20260503173055 53 292 10.0 17.0 0.00 0.00 0.00 33 1012.9
20260503172552 53 230 9.0 19.0 0.00 0.00 0.00 34 1012.8
20260503172052 54 303 8.0 19.0 0.00 0.00 0.00 39 1012.8
20260503171611 53 289 8.0 21.0 0.00 0.00 0.00 36 1012.9
20260503171056 52 175 10.0 21.0 0.00 0.00 0.00 34 1012.9
20260503170553 53 317 6.0 21.0 0.00 0.00 0.00 36 1013.1
20260503170103 53 196 12.0 22.0 0.00 0.00 0.00 35 1013.0
20260503150553 49 329 6.0 18.0 0.00 0.00 0.00 46 1013.6
20260503131056 44 314 8.0 12.0 0.00 0.00 0.00 57 1014.1
20260503130552 44 268 5.0 16.0 0.00 0.00 0.00 57 1014.0